Location: Waco, TX
(31.5480°N, 97.1670°W)
Time: 13:50:09

ISS - Pass Details

Date: 18 March 2018
Orbit: 403 x 406 km, 51.6° (Epoch: 21 March)

Event Time Altitude Azimuth Distance (km) Brightness Sun altitude
Rises 06:48:17 0° 320° (NW) 2,322 - -10.8°
Exits shadow 06:49:00 - 321° (NW) 2,028 -0.6 -10.6°
Reaches altitude 10° 06:50:24 10° 325° (NW) 1,459 -1.3 -10.3°
Maximum altitude 06:53:36 51° 43° (NE) 511 -3.0 -9.6°
Drops below altitude 10° 06:56:47 10° 121° (ESE) 1,451 -0.1 -9.0°
Sets 06:58:53 0° 126° (SE) 2,306 0.9 -8.5°
